Location: Poughquag
(41.6090°N, 73.6820°W)
Time: 09:31:59
(UTC-04:00)

ISS - Pass Details

Date: 23 May 2019
Orbit: 411 x 421 km, 51.6° (Epoch: 14 October)

Event Time Altitude Azimuth Distance (km) Brightness Sun altitude
Rises 23:39:40 0° 306° (NW) 2,365 0.9 -25.5°
Reaches altitude 10° 23:42:16 10° 328° (NNW) 1,503 0.0 -25.7°
Maximum altitude 23:44:37 17° 12° (NNE) 1,138 -0.9 -25.8°
Enters shadow 23:45:57 14° 40° (NE) 1,270 -1.0 -25.9°
